{"data":{"norad_id":68950,"intl_designator":"2026-098AH","name":"KUIPER-00458","alt_names":[],"object_type":"PAYLOAD","status":"ACTIVE","operator":null,"country":"US","launch_date":"2026-04-30","launch_site_code":"FRGUI","launch_vehicle":null,"mission":null,"orbit_class":"UNKNOWN","rcs_meters":null,"size_class":null,"mass_kg":null,"dimensions":null,"purposes":[],"wikipedia_slug":null,"has_3d_model":false,"image_url":null,"decayed_at":null,"tle_current":{"epoch":"2026-05-24T12:24:15.217056Z","epoch_age_seconds":116490,"freshness":"FRESH","line1":"1 68950U 26098AH  26144.51684279  .00018424  00000+0  52853-3 0  9996","line2":"2 68950  51.8764 181.6239 0003763  63.4698 296.6674 15.35913839  3714","mean_motion":15.35913839,"eccentricity":0.0003763,"inclination_deg":51.8764,"raan_deg":181.6239,"arg_perigee_deg":63.4698,"mean_anomaly_deg":296.6674,"bstar":0.00052853,"rev_number":371,"period_min":93.755259145106,"perigee_km":455.63497129651,"apogee_km":460.78000415797,"semimajor_km":6836.3444877272,"source":"CELESTRAK","updated_at":"2026-05-25T13:38:08.799289Z"}}}